Location: Unspecified
(0.0000°N, 0.0000°E)
Time: 00:00:41
(UTC+00:00)

Vanguard 2 - All Passes

Search period start: 09 December 2016 00:00
Search period end: 19 December 2016 00:00
Orbit: 553 x 2940 km, 32.9° (Epoch: 07 December)

Date Brightness Start Highest point End Pass type
(mag) Time Alt. Az. Time Alt. Az. Time Alt. Az.
09 Dec - 04:10:48 10° S 04:16:42 15° SSE 04:23:48 10° ESE visible
09 Dec - 06:16:32 10° SSW 06:29:29 46° SE 06:46:07 10° ENE daylight
09 Dec - 08:26:07 10° WSW 08:42:29 79° NW 09:00:04 10° NE daylight
09 Dec - 10:40:58 10° W 10:56:18 35° NNW 11:09:45 10° NNE daylight
09 Dec - 13:05:32 10° NW 13:11:11 13° NNW 13:16:10 10° N daylight
09 Dec - 17:37:48 10° N 17:39:29 11° NNE 17:41:01 10° NNE daylight
09 Dec - 19:44:21 10° NW 19:49:12 62° NNE 19:53:07 10° ESE visible
09 Dec - 21:56:23 10° SW 21:57:30 11° SSW 21:58:39 10° SSW night (unlit)
10 Dec - 04:27:45 10° S 04:35:41 20° SSE 04:45:53 10° ESE visible
10 Dec - 06:34:25 10° SW 06:47:59 59° SE 07:05:32 10° ENE daylight
10 Dec - 08:44:51 10° WSW 09:01:08 64° NW 09:18:19 10° NE daylight
10 Dec - 11:01:31 10° W 11:15:22 27° NNW 11:27:30 10° NNE daylight
10 Dec - 13:29:41 10° NNW 13:30:59 10° NNW 13:32:14 10° N daylight
10 Dec - 17:54:04 10° NNW 17:58:23 18° NNE 18:01:45 10° ENE daylight
10 Dec - 20:02:40 10° WNW 20:07:26 63° SW 20:11:20 10° SE visible
11 Dec - 04:45:03 10° SSW 04:54:25 28° SE 05:07:03 10° E visible
11 Dec - 06:52:29 10° SW 07:06:27 75° SE 07:24:33 10° ENE daylight
11 Dec - 09:03:57 10° WSW 09:19:53 51° NNW 09:36:23 10° NE daylight
11 Dec - 11:22:41 10° WNW 11:34:43 22° NNW 11:45:16 10° NNE daylight
11 Dec - 18:11:28 10° NNW 18:17:06 29° NNE 18:21:08 10° E visible
11 Dec - 20:21:30 10° W 20:25:35 30° SW 20:29:07 10° SSE visible
12 Dec - 05:02:35 10° SSW 05:12:55 37° SE 05:27:28 10° E visible
12 Dec - 07:10:44 10° SW 07:24:58 88° NW 07:43:14 10° NE daylight
12 Dec - 09:23:29 10° W 09:38:48 41° NNW 09:54:21 10° NNE daylight
12 Dec - 11:44:25 10° NW 11:54:21 17° NNW 12:03:06 10° NNE daylight
12 Dec - 16:20:47 10° NNW 16:24:58 14° NNE 16:28:23 10° NE daylight
12 Dec - 18:29:19 10° NW 18:35:38 50° NNE 18:39:57 10° ESE visible
12 Dec - 20:41:05 10° WSW 20:43:46 16° SW 20:46:15 10° S visible
13 Dec - 03:15:57 10° S 03:20:03 13° SE 03:24:53 10° ESE visible
13 Dec - 05:20:17 10° SW 05:31:18 49° SE 05:47:17 10° ENE visible
13 Dec - 07:29:14 10° WSW 07:43:34 72° NW 08:01:38 10° NE daylight
13 Dec - 09:43:29 10° W 09:57:55 32° NNW 10:12:16 10° NNE daylight
13 Dec - 12:06:30 10° NW 12:14:15 14° NNW 12:21:09 10° NNE daylight
13 Dec - 14:29:24 10° N 14:30:45 10° N 14:32:03 10° N daylight
13 Dec - 16:37:52 10° NNW 16:44:04 20° NNE 16:48:35 10° ENE daylight
13 Dec - 18:47:34 10° NW 18:53:58 89° SW 18:58:20 10° SE visible
14 Dec - 03:32:20 10° S 03:38:44 19° SE 03:47:09 10° ESE visible
14 Dec - 05:38:09 10° SW 05:49:38 64° SE 06:06:36 10° ENE daylight
14 Dec - 07:48:02 10° WSW 08:02:18 57° NNW 08:19:52 10° NE daylight
14 Dec - 10:04:02 10° WNW 10:17:19 26° NNW 10:30:13 10° NNE daylight
14 Dec - 12:28:20 10° NNW 12:34:20 13° N 12:39:44 10° NNE daylight
14 Dec - 14:45:47 10° NNW 14:50:26 13° N 14:54:23 10° NNE daylight
14 Dec - 16:55:26 10° NNW 17:02:58 30° NNE 17:08:00 10° E daylight
14 Dec - 19:06:13 10° WNW 19:12:07 48° SW 19:16:18 10° SE visible
15 Dec - 03:49:27 10° SSW 03:57:11 27° SE 04:08:12 10° E visible
15 Dec - 05:56:14 10° SW 06:08:00 81° SE 06:25:31 10° ENE daylight
15 Dec - 08:07:11 10° W 08:21:14 46° NNW 08:37:58 10° NE daylight
15 Dec - 10:25:08 10° WNW 10:36:59 21° NNW 10:48:16 10° NNE daylight
15 Dec - 12:49:05 10° NNW 12:54:29 12° N 12:59:19 10° NNE daylight
15 Dec - 15:03:06 10° NNW 15:09:55 17° NNE 15:15:12 10° NE daylight
15 Dec - 17:13:19 10° NW 17:21:41 45° NNE 17:26:54 10° ESE daylight
15 Dec - 19:25:24 10° W 19:30:12 26° SW 19:33:52 10° SSE visible
16 Dec - 04:06:53 10° SSW 04:15:28 37° SE 04:28:27 10° E visible
16 Dec - 06:14:31 10° WSW 06:26:30 80° NW 06:44:08 10° NE daylight
16 Dec - 08:26:45 10° W 08:40:21 36° NNW 08:56:00 10° NNE daylight
16 Dec - 10:46:37 10° NW 10:56:55 17° NNW 11:06:35 10° NNE daylight
16 Dec - 13:08:24 10° NNW 13:14:34 13° N 13:19:55 10° NNE daylight
16 Dec - 15:20:40 10° NNW 15:29:12 23° NNE 15:35:14 10° ENE daylight
16 Dec - 17:31:31 10° NW 17:40:09 73° NNE 17:45:24 10° ESE daylight
16 Dec - 19:45:28 10° WSW 19:48:17 14° SW 19:50:42 10° S visible
17 Dec - 02:21:53 10° SSE 02:23:45 11° SE 02:25:45 10° SE visible
17 Dec - 04:24:33 10° SW 04:33:39 51° SE 04:48:06 10° ENE visible
17 Dec - 06:33:04 10° WSW 06:45:10 63° NNW 07:02:31 10° NE daylight
17 Dec - 08:46:49 10° WNW 08:59:43 29° NNW 09:14:02 10° NNE daylight
17 Dec - 11:08:07 10° NW 11:17:06 15° N 11:25:23 10° NNE daylight
17 Dec - 13:26:49 10° NNW 13:34:29 15° N 13:40:47 10° NE daylight
17 Dec - 15:38:26 10° NNW 15:48:16 31° NNE 15:54:43 10° E daylight
17 Dec - 17:50:03 10° WNW 17:58:26 70° SW 18:03:34 10° SE daylight
18 Dec - 02:37:15 10° S 02:42:12 17° SE 02:48:38 10° ESE visible
18 Dec - 04:42:27 10° SW 04:51:53 69° SE 05:07:17 10° ENE visible
18 Dec - 06:51:57 10° WSW 07:04:00 50° NNW 07:20:43 10° NE daylight
18 Dec - 09:07:23 10° WNW 09:19:21 23° NNW 09:32:11 10° NNE daylight
18 Dec - 11:29:03 10° NNW 11:37:23 15° N 11:44:57 10° NNE daylight
18 Dec - 13:44:51 10° NNW 13:54:11 19° NNE 14:01:21 10° NE daylight
18 Dec - 15:56:23 10° NW 16:07:09 44° NNE 16:13:43 10° E daylight
18 Dec - 18:09:00 10° WNW 18:16:31 42° SW 18:21:24 10° SSE visible
